Location: Unspecified
(42.3650°N, 71.1030°W)
Time: 02:18:55
(UTC+00:00)

Explorer 11/Cluster Stage 4 - Pass Details

Date: 30 June 2024
Orbit: 465 x 1215 km, 28.8° (Epoch: 17 July)

Event Time Altitude Azimuth Distance (km) Brightness Sun altitude
Rises 21:11:10 0° 220° (SW) 3,409 10.3 32.9°
Reaches altitude 10° 21:14:20 10° 202° (SSW) 2,618 9.6 32.4°
Maximum altitude 21:18:38 19° 160° (SSE) 2,220 8.8 31.6°
Drops below altitude 10° 21:23:24 10° 119° (ESE) 2,957 9.1 30.7°
Sets 21:27:16 0° 103° (ESE) 4,018 9.7 30.0°
